Date String (YYYY-MM-DD hh:mm:ss) UTC,Instrument flags,absolute air pressure of the measurement (hPa),sample flow rate (lpm),inlet stack bypass flow (lpm),air temperature of the measurement (°C),ambient temperature measured by the external sensor (°C),aerosol sample conditioner tube jacket temperature (°C),OPC LED temperature (°C),internal box temperature (°C),relative humidity of the measurement (%),span deviation,mass concentration of particles derived from Lorenz-Mie calculation of OPC scattering (μg/m³),mass concentration of particles derived from Lorenz-Mie calculation of OPC scattering (μg/m³),mass concentration of particles derived from Lorenz-Mie calculation of OPC scattering (μg/m³)
DateTimeUTC,F1_M11,P_M11,Q1_M11,Q2_M11,T1_M11,T2_M11,T3_M11,T4_M11,T5_M11,U1_M11,ZSPAN_M11,X2_M11,X0_M11,X1_M11
2023-07-06 10:00:00,SystemResetWarning,0833.8,4.99,000.00,030.1,028.8,000.0,038.7,031.7,34.1,-002.0,0009.99,0014.01,0009.72
2023-07-06 10:01:00,SystemResetWarning,0833.8,5.00,000.00,030.2,028.8,000.0,038.8,031.7,34.1,-002.0,0010.03,0013.68,0009.76
2023-07-06 10:02:00,SystemResetWarning,0833.8,5.00,000.00,030.2,028.8,000.0,038.8,031.7,34.2,-002.1,0010.05,0013.65,0009.78
2023-07-06 10:03:00,SystemResetWarning,0833.8,5.00,000.00,030.2,028.8,000.0,038.8,031.7,34.2,-002.1,0010.05,0013.73,0009.79
2023-07-06 10:04:00,SystemResetWarning,0833.8,4.99,000.00,030.2,028.8,000.0,038.8,031.6,34.1,-002.3,0010.05,0013.92,0009.80
2023-07-06 10:05:00,SystemResetWarning,0833.8,5.00,000.00,030.2,028.8,000.0,038.8,031.6,34.1,-002.2,0010.03,0014.37,0009.80
2023-07-06 10:06:00,SystemResetWarning,0833.9,5.01,000.00,030.2,028.8,000.0,038.8,031.7,34.1,-002.1,0010.04,0014.45,0009.79
2023-07-06 10:07:00,SystemResetWarning,0833.8,5.01,000.00,030.2,028.8,000.0,038.8,031.7,34.1,-002.1,0010.06,0014.46,0009.81
2023-07-06 10:08:00,SystemResetWarning,0833.8,5.01,000.00,030.2,028.8,000.0,038.8,031.7,34.1,-002.1,0010.09,0014.52,0009.82
2023-07-06 10:09:00,SystemResetWarning,0833.8,5.00,000.00,030.2,028.9,000.0,038.8,031.7,34.0,-002.0,0010.11,0015.04,0009.84
2023-07-06 10:10:00,SystemResetWarning,0833.7,5.00,000.00,030.2,028.9,000.0,038.8,031.7,34.0,-002.2,0010.15,0015.30,0009.86
2023-07-06 10:11:00,SystemResetWarning,0833.7,4.99,000.00,030.2,028.9,000.0,038.8,031.7,34.0,-002.4,0010.15,0015.37,0009.85
2023-07-06 10:12:00,SystemResetWarning,0833.8,4.99,000.00,030.3,028.9,000.0,038.8,031.8,33.9,-002.5,0010.13,0015.33,0009.83
2023-07-06 10:13:00,SystemResetWarning,0833.8,4.99,000.00,030.3,028.9,000.0,038.8,031.8,33.9,-002.6,0010.13,0015.34,0009.83
2023-07-06 10:14:00,SystemResetWarning,0833.8,5.00,000.00,030.3,028.9,000.0,038.8,031.8,33.9,-002.8,0010.14,0015.21,0009.83
2023-07-06 10:15:00,SystemResetWarning,0833.8,5.00,000.00,030.3,028.9,000.0,038.8,031.8,33.8,-002.7,0010.12,0015.04,0009.82
2023-07-06 10:16:00,SystemResetWarning,0833.8,5.00,000.00,030.3,029.0,000.0,038.8,031.8,33.7,-002.7,0010.13,0014.49,0009.82
2023-07-06 10:17:00,SystemResetWarning,0833.8,5.00,000.00,030.3,029.0,000.0,038.8,031.8,33.7,-002.8,0010.12,0014.43,0009.83
2023-07-06 10:18:00,SystemResetWarning,0833.7,4.99,000.00,030.3,027.7,000.0,038.7,031.7,33.7,-002.9,0010.11,0014.40,0009.84
2023-07-06 10:19:00,SystemResetWarning,0833.7,5.00,000.00,030.3,026.0,000.0,038.6,031.5,33.8,-002.9,0010.13,0014.92,0009.85
2023-07-06 10:20:00,SystemResetWarning,0833.7,5.00,000.00,030.1,025.5,000.0,038.5,031.2,33.9,-002.9,0010.14,0014.63,0009.85
2023-07-06 10:21:00,SystemResetWarning,0833.7,5.01,000.00,030.0,025.7,000.0,038.5,030.9,34.2,-002.6,0010.14,0014.53,0009.86
2023-07-06 10:22:00,SystemResetWarning,0833.8,4.99,000.00,029.9,026.1,000.0,038.5,030.9,34.4,-002.5,0010.16,0014.51,0009.88
2023-07-06 10:23:00,SystemResetWarning,0833.8,5.00,000.00,029.8,026.5,000.0,038.5,031.0,34.4,-002.4,0010.19,0014.54,0009.90
2023-07-06 10:24:00,SystemResetWarning,0833.8,5.00,000.00,029.8,026.9,000.0,038.5,031.1,34.4,-002.3,0010.20,0014.57,0009.91
2023-07-06 10:25:00,SystemResetWarning,0833.8,5.00,000.00,029.8,027.2,000.0,038.5,031.1,34.5,-002.2,0010.21,0014.59,0009.93
2023-07-06 10:26:00,SystemResetWarning,0833.8,4.98,000.00,029.8,027.4,000.0,038.5,031.1,34.6,-002.2,0010.31,0014.79,0010.00
2023-07-06 10:27:00,SystemResetWarning,0833.8,4.99,000.00,029.8,027.7,000.0,038.5,031.2,34.6,-002.1,0010.42,0015.00,0010.07
2023-07-06 10:28:00,SystemResetWarning,0833.8,5.01,000.00,029.8,027.8,000.0,038.5,031.2,34.5,-001.9,0010.50,0015.16,0010.13
2023-07-06 10:29:00,SystemResetWarning,0833.8,5.01,000.00,029.8,028.0,000.0,038.4,031.2,34.6,-001.8,0010.57,0015.29,0010.17
2023-07-06 10:30:00,SystemResetWarning,0833.7,4.99,000.00,029.8,028.1,000.0,038.4,031.3,34.6,-001.8,0010.65,0015.10,0010.22
2023-07-06 10:31:00,SystemResetWarning,0833.8,4.99,000.00,029.8,028.2,000.0,038.4,031.3,34.5,-001.9,0010.71,0014.86,0010.29
2023-07-06 10:32:00,SystemResetWarning,0833.8,5.00,000.00,029.8,028.3,000.0,038.4,031.3,34.5,-002.1,0010.78,0014.99,0010.33
2023-07-06 10:33:00,SystemResetWarning,0833.8,5.03,000.00,029.8,028.3,000.0,038.4,031.3,34.5,-002.3,0010.80,0015.07,0010.35
2023-07-06 10:34:00,SystemResetWarning,0833.8,4.99,000.00,029.9,028.4,000.0,038.4,031.3,34.4,-002.4,0010.86,0015.21,0010.37
2023-07-06 10:35:00,SystemResetWarning,0833.8,4.99,000.00,029.9,028.4,000.0,038.4,031.4,34.3,-002.3,0010.91,0015.35,0010.40
2023-07-06 10:36:00,SystemResetWarning,0833.8,5.01,000.00,029.9,028.5,000.0,038.4,031.4,34.3,-002.3,0010.95,0015.45,0010.40
2023-07-06 10:37:00,SystemResetWarning,0833.9,5.01,000.00,029.9,028.5,000.0,038.5,031.4,34.3,-002.4,0010.95,0015.46,0010.38
2023-07-06 10:38:00,SystemResetWarning,0834.0,5.00,000.00,029.9,028.6,000.0,038.5,031.4,34.3,-002.4,0010.92,0015.47,0010.36
2023-07-06 10:39:00,SystemResetWarning,0834.0,5.00,000.00,029.9,028.6,000.0,038.5,031.4,34.2,-002.5,0010.90,0015.46,0010.32
2023-07-06 10:40:00,SystemResetWarning,0834.1,5.00,000.00,030.0,028.6,000.0,038.5,031.5,34.2,-002.5,0010.86,0015.38,0010.29
2023-07-06 10:41:00,SystemResetWarning,0834.1,5.00,000.00,030.0,028.6,000.0,038.5,031.5,34.2,-002.6,0010.82,0015.24,0010.26
2023-07-06 10:42:00,SystemResetWarning,0834.2,5.00,000.00,030.0,028.7,000.0,038.5,031.5,34.3,-002.5,0010.77,0015.20,0010.23
2023-07-06 10:43:00,SystemResetWarning,0834.2,5.00,000.00,030.0,028.7,000.0,038.5,031.5,34.3,-002.5,0010.72,0015.10,0010.21
2023-07-06 10:44:00,SystemResetWarning,0834.2,5.01,000.00,030.0,028.7,000.0,038.5,031.5,34.3,-002.4,0010.71,0015.05,0010.20
2023-07-06 10:45:00,SystemResetWarning,0834.3,5.02,000.00,030.0,028.7,000.0,038.5,031.5,34.2,-002.3,0010.69,0015.00,0010.20
2023-07-06 10:46:00,SystemResetWarning,0834.4,5.00,000.00,030.1,028.7,000.0,038.5,031.5,34.1,-002.4,0010.63,0014.88,0010.16
2023-07-06 10:47:00,SystemResetWarning,0834.7,5.00,000.00,030.1,028.8,000.0,038.5,031.6,34.2,-002.3,0010.57,0014.77,0010.14
2023-07-06 10:48:00,SystemResetWarning,0834.9,5.00,000.00,030.1,028.8,000.0,038.5,031.6,34.2,-002.3,0010.49,0014.59,0010.10
2023-07-06 10:49:00,SystemResetWarning,0835.0,5.00,000.00,030.1,028.8,000.0,038.6,031.6,34.2,-002.3,0010.40,0014.41,0010.04
2023-07-06 10:50:00,SystemResetWarning,0835.1,5.00,000.00,030.1,028.8,000.0,038.6,031.6,34.2,-002.2,0010.33,0014.31,0009.99
2023-07-06 10:51:00,SystemResetWarning,0835.2,5.00,000.00,030.1,028.8,000.0,038.6,031.6,34.2,-002.1,0010.29,0014.23,0009.97
2023-07-06 10:52:00,SystemResetWarning,0835.2,5.00,000.00,030.1,028.8,000.0,038.6,031.6,34.2,-001.9,0010.21,0014.32,0009.91
2023-07-06 10:53:00,SystemResetWarning,0835.3,5.01,000.00,030.1,028.8,000.0,038.6,031.6,34.2,-002.1,0010.12,0014.25,0009.83
2023-07-06 10:54:00,SystemResetWarning,0835.3,5.00,000.00,030.1,028.7,000.0,038.6,031.6,34.2,-001.9,0010.02,0014.07,0009.71
2023-07-06 10:55:00,SystemResetWarning,0835.2,4.99,000.00,030.1,028.7,000.0,038.6,031.6,34.1,-001.8,0009.92,0013.93,0009.61
2023-07-06 10:56:00,SystemResetWarning,0835.2,5.00,000.00,030.1,028.8,000.0,038.7,031.6,34.0,-001.9,0009.73,0013.63,0009.45
2023-07-06 10:57:00,SystemResetWarning,0835.2,5.00,000.00,030.1,028.8,000.0,038.7,031.6,33.9,-001.9,0009.64,0013.45,0009.35
2023-07-06 10:58:00,SystemResetWarning,0835.2,5.00,000.00,030.1,028.8,000.0,038.7,031.6,33.8,-002.0,0009.56,0014.04,0009.25
2023-07-06 10:59:00,SystemResetWarning,0835.1,5.00,000.00,030.2,028.8,000.0,038.7,031.6,33.8,-002.1,0009.45,0013.98,0009.15
